Wind_Speed
11 9 10 10 10 12 14 16 18 18 17 16 15 16 16 17 19 21 23 25 27 28 31 33 36 38 42 44 46 47 48 50 53 53 54 53 57 56 56 54 55 56 56 53 54 53 55 53 52 52 47 42 42 41
6 9 13 13 13 15 14 15 13 10 9 10 12 15 18 20 22 24 27 28 30 33 36 38 40 42 43 42 46 48 49 51 55 56 57 57 57 58 57 57 58 58 56 56 54 54 51 52 52 50 48 47 44 42
10 11 10 10 11 9 3 4 7 10 12 12 15 18 21 22 24 27 30 34 36 36 37 39 39 41 43 45 47 50 52 54 54 55 56 58 59 59 59 59 59 59 57 57 56 51 52 51 52 51 51 49 48 46
7 8 9 6 4 2 5 8 10 13 15 18 20 21 23 27 29 32 34 37 41 43 44 43 45 46 49 50 52 54 56 58 59 60 61 62 60 61 59 58 59 55 58 55 56 53 54 53 51 51 50 49 48 48
5 3 2 3 7 8 10 14 17 19 20 21 24 26 28 31 34 36 40 43 45 45 47 48 50 52 54 56 56 56 56 58 60 60 61 60 60 59 58 57 53 54 55 55 55 56 55 49 48 47 45 43 45 45
4 7 9 10 12 14 16 19 22 25 26 28 30 31 35 39 42 44 46 47 49 52 54 54 56 56 59 60 60 60 61 60 61 59 57 55 54 55 55 51 47 54 53 56 58 58 54 48 46 44 43 42 42 41
12 14 15 16 17 20 23 27 29 30 30 32 35 38 40 43 47 49 52 55 56 56 56 60 63 63 63 62 62 63 65 65 64 61 57 54 48 48 47 45 46 52 55 57 59 59 49 43 40 39 40 39 39 39
18 20 22 24 26 27 29 32 35 37 40 41 42 43 45 47 49 50 52 53 56 58 60 62 62 62 61 62 63 65 66 65 62 57 51 49 47 44 45 45 48 53 58 60 55 50 44 40 38 37 37 36 34 33
24 27 28 30 33 35 37 40 44 46 46 44 45 46 48 50 51 54 57 59 60 60 62 62 62 60 62 64 63 62 60 58 55 49 46 46 44 45 45 45 46 43 46 44 42 37 33 32 33 33 33 33 32 32
28 31 34 36 39 40 42 45 47 48 47 47 48 50 53 55 57 59 62 63 63 63 63 63 62 62 62 61 60 60 58 53 52 47 46 42 40 36 34 35 36 40 41 36 29 28 29 30 31 32 32 31 31 31
36 38 40 42 44 46 48 48 48 48 47 49 50 52 55 58 61 63 64 65 64 63 64 62 60 58 56 54 54 54 54 52 51 45 42 40 38 33 36 39 36 32 31 30 27 25 25 28 32 30 30 30 30 30
43 44 47 48 48 48 48 49 51 51 51 52 55 57 59 60 64 65 64 63 62 62 60 58 55 52 51 50 51 50 49 50 48 45 41 36 34 37 41 31 27 30 31 30 30 30 29 34 37 37 36 37 37 36
45 46 47 47 48 49 51 52 54 55 55 55 56 58 62 62 62 63 61 60 60 57 54 51 49 48 48 48 49 49 49 48 47 44 41 35 35 35 34 35 32 29 31 33 37 39 44 41 42 41 38 42 46 45
44 46 48 50 52 53 53 53 53 54 55 57 59 61 61 62 62 60 60 58 55 52 49 46 44 46 45 46 46 48 48 47 47 45 41 40 38 33 31 42 51 52 51 43 44 46 46 47 50 48 51 52 50 52
51 51 52 53 53 54 53 54 56 58 58 59 59 60 60 59 58 58 55 50 48 46 43 42 42 44 45 46 46 47 47 49 48 46 45 45 43 39 40 49 55 58 53 50 52 52 53 54 56 55 57 59 62 64
55 54 55 56 56 56 57 57 57 58 58 58 57 57 57 55 56 52 47 46 45 43 43 45 47 49 48 47 47 46 46 47 47 48 48 48 46 45 46 49 49 48 47 47 48 48 47 47 48 50 51 53 56 61
59 59 59 58 57 55 55 56 57 56 56 56 55 54 54 54 47 44 45 45 45 45 47 50 51 52 53 52 50 51 49 49 50 50 49 48 47 47 47 46 45 45 46 46 46 46 46 48 48 49 50 51 51 53
54 55 55 54 54 52 51 50 49 52 51 50 50 53 49 43 42 44 46 47 48 49 51 52 53 53 54 53 52 52 52 52 52 51 51 50 49 47 46 46 45 46 46 46 46 46 47 47 47 48 50 50 49 49
54 54 53 51 50 48 47 47 47 47 47 50 50 42 40 41 45 47 48 49 51 53 53 53 54 54 53 52 52 52 52 53 52 51 52 51 50 48 47 46 46 45 45 45 45 46 47 47 47 47 48 47 46 47
52 50 47 44 44 45 45 44 46 49 51 46 39 39 42 45 47 49 50 51 52 53 54 55 54 54 54 53 53 54 54 54 52 52 52 51 48 47 46 45 44 44 45 46 47 46 45 46 45 45 44 42 41 41
46 44 43 42 41 40 43 46 50 48 43 38 39 45 48 50 49 50 50 52 52 54 55 56 56 55 55 55 54 54 54 53 51 50 50 49 47 45 44 43 43 44 45 44 44 44 43 43 42 41 40 39 38 37
37 37 36 37 39 43 46 48 43 40 39 43 48 52 53 52 51 51 52 52 54 55 56 56 55 55 54 54 53 52 51 50 49 48 48 47 44 43 43 43 43 44 45 42 42 41 39 39 38 37 36 35 34 34
33 35 36 40 44 45 43 40 39 40 47 53 55 55 55 54 53 53 54 54 56 57 57 56 54 54 53 51 50 50 49 48 47 46 46 45 43 42 42 43 43 42 40 40 38 35 35 35 35 34 33 32 32 33
36 40 42 42 40 37 36 38 42 49 54 55 56 56 56 55 57 56 56 57 58 57 55 53 51 50 50 49 48 47 47 47 45 45 44 42 42 42 40 40 40 41 37 35 34 32 31 33 34 33 32 31 30 30
37 34 31 33 36 39 43 46 50 53 55 55 57 57 59 60 58 57 57 59 58 56 53 50 48 46 45 46 47 48 47 44 42 42 42 40 40 38 38 37 38 39 33 31 29 28 29 31 33 32 31 30 28 28
31 35 39 43 45 47 49 52 54 55 57 59 60 62 62 61 59 59 59 58 55 51 48 46 46 48 47 46 44 43 41 40 39 40 41 39 37 35 33 32 32 35 33 31 28 26 27 29 32 31 30 31 29 28
40 43 45 47 49 51 53 53 55 57 59 60 63 62 63 61 60 59 57 54 50 47 46 45 44 43 43 43 41 39 38 38 37 38 38 37 36 35 31 29 29 29 28 28 27 25 24 26 29 29 29 30 29 28
45 46 48 50 52 53 55 57 59 60 62 64 64 63 62 59 56 55 53 48 45 43 42 43 43 43 42 40 39 39 37 36 34 32 31 33 35 35 32 28 26 26 25 25 25 24 23 24 26 27 28 28 28 27
47 49 51 52 54 55 57 59 59 61 63 63 61 58 55 54 53 51 46 44 44 44 44 44 42 39 38 36 36 35 34 34 32 30 30 28 28 32 34 32 29 26 25 25 25 22 19 20 23 24 25 26 26 24
50 53 55 57 58 60 60 61 62 61 59 58 56 53 50 48 46 44 43 43 44 45 44 41 37 34 31 29 28 28 31 31 30 30 28 26 26 27 28 29 29 27 25 25 24 24 22 20 22 24 25 26 26 27
56 59 60 60 60 60 60 59 56 54 52 51 49 46 44 40 39 38 40 41 42 42 39 34 30 27 26 26 25 23 22 26 26 27 26 25 25 26 27 27 26 26 25 24 23 22 22 21 22 22 23 25 26 27
60 62 64 63 61 58 57 53 51 46 44 42 39 38 36 35 35 37 36 35 32 29 28 28 26 25 25 24 23 22 22 22 24 24 24 24 25 25 25 25 25 25 25 25 24 24 23 21 22 22 22 24 25 26
63 62 62 61 58 55 53 50 47 41 37 35 33 32 31 32 35 34 31 28 26 26 26 25 25 25 26 26 25 24 23 22 22 23 23 23 24 23 22 21 21 22 22 23 24 24 24 24 22 21 21 23 25 26
Wind_Direction
164 184 206 210 222 238 250 261 264 265 271 278 281 285 291 291 291 292 294 297 300 301 300 299 298 298 298 299 299 299 298 299 298 301 302 303 301 301 300 301 298 296 294 294 292 293 294 296 292 290 293 291 291 292
209 218 223 240 252 245 253 261 257 258 274 277 281 283 286 292 297 303 306 308 308 308 307 306 305 303 304 303 302 302 304 304 305 303 303 303 303 302 301 298 295 291 290 289 288 292 292 289 287 289 289 287 285 287
220 239 247 248 241 244 239 264 266 272 282 290 295 301 304 305 306 306 307 308 308 311 311 311 310 309 310 308 308 307 304 303 302 302 303 302 300 299 296 294 292 288 286 284 286 292 287 285 286 286 282 281 281 282
236 224 216 196 192 232 272 272 276 287 297 298 298 303 307 307 309 312 316 317 317 315 313 312 311 311 310 310 310 309 306 304 303 303 303 301 297 294 292 290 287 284 281 282 285 289 286 285 285 283 282 281 281 281
148 170 196 241 251 263 272 277 285 295 302 303 305 305 309 312 314 315 317 318 319 318 316 315 314 312 312 310 309 308 306 304 304 302 299 296 292 289 288 285 285 277 276 280 286 290 294 288 285 284 282 282 284 282
235 242 252 258 264 273 284 289 295 300 300 298 300 305 309 311 314 315 317 318 318 317 315 315 317 313 312 312 311 308 308 307 305 304 301 296 288 285 284 282 275 273 276 280 283 290 295 291 288 285 283 280 280 281
270 270 270 273 279 284 290 295 296 300 299 300 300 302 307 312 314 315 314 316 316 316 315 314 316 315 312 310 308 308 309 310 307 305 303 298 293 287 285 281 272 276 276 282 289 294 295 295 289 282 279 276 274 275
292 287 281 279 281 289 294 298 301 305 307 303 302 302 306 305 306 307 311 312 313 314 315 314 312 310 309 307 306 308 309 308 305 307 304 299 294 287 283 279 278 282 283 288 293 293 293 289 285 281 277 277 278 277
298 296 293 293 292 291 294 295 299 302 303 300 298 300 302 303 305 307 308 310 313 313 312 312 313 311 311 311 313 311 309 307 307 306 303 298 293 288 287 285 285 286 288 290 290 288 281 278 279 282 282 280 277 275
297 296 295 295 294 295 297 298 300 301 300 299 301 301 302 305 307 309 311 312 311 312 313 316 316 315 314 314 313 311 311 310 309 310 305 302 301 297 294 292 288 294 295 292 283 276 273 282 282 285 287 286 284 282
300 300 301 300 301 301 301 302 303 303 303 302 302 302 304 307 308 310 310 311 313 314 315 315 316 314 315 313 311 311 312 312 314 313 309 309 307 302 306 308 303 291 288 289 288 286 270 273 284 286 286 288 291 287
303 303 303 303 304 304 305 306 306 306 306 305 305 306 307 308 308 311 313 313 314 315 315 313 314 315 315 314 314 316 316 317 319 318 317 314 311 310 308 307 304 287 281 278 285 287 285 289 286 283 284 286 287 286
303 304 305 306 306 307 307 306 305 304 304 303 304 306 308 310 310 313 314 315 314 314 313 314 315 317 318 317 318 318 319 319 318 319 318 318 314 302 296 296 300 294 283 276 280 277 284 279 277 281 285 281 279 282
303 302 301 301 301 302 302 302 302 303 303 304 306 308 309 311 312 313 314 313 311 310 313 315 317 319 320 319 318 318 317 317 318 319 319 315 306 303 303 294 295 301 305 295 289 287 287 278 269 271 271 273 284 275
296 297 298 300 301 301 301 302 303 303 304 306 309 311 311 311 311 311 311 309 310 310 311 314 318 321 320 318 318 317 317 317 318 318 311 307 303 296 284 279 290 296 297 296 292 289 285 281 278 276 272 273 274 272
296 295 297 298 299 300 300 301 302 303 305 307 306 308 309 310 310 309 309 308 308 308 308 309 311 312 313 311 313 311 310 312 311 309 308 307 305 302 297 295 295 297 298 297 296 295 294 293 290 287 286 284 282 280
295 295 296 297 298 300 299 299 301 303 305 307 307 307 308 309 307 308 309 307 305 304 302 303 305 307 308 307 310 308 307 307 308 309 309 307 305 303 302 301 301 301 301 300 300 300 298 297 296 295 293 292 291 290
300 299 299 298 298 298 300 301 303 303 304 305 307 306 307 307 310 310 308 305 303 302 302 304 304 306 305 306 306 306 306 306 307 308 308 307 305 304 303 303 303 303 303 302 302 302 300 298 298 296 295 295 294 293
298 297 297 297 297 297 299 300 302 304 306 307 307 306 308 311 310 310 307 306 305 305 304 305 305 305 304 305 304 305 305 305 306 306 308 308 306 305 305 305 305 305 303 302 303 302 302 301 301 300 300 300 299 297
296 296 295 295 295 298 298 302 307 307 307 308 308 309 312 313 312 310 309 308 307 306 305 305 305 304 304 304 303 304 305 306 307 306 308 308 307 306 306 306 306 305 303 304 304 305 304 303 303 303 303 301 300 299
296 294 296 298 298 299 303 306 306 307 307 310 310 311 313 313 312 310 309 307 307 304 304 305 304 304 304 304 304 304 307 307 307 308 308 308 307 306 306 306 306 305 304 305 305 306 306 306 306 306 306 306 305 305
293 298 300 301 302 303 305 307 306 305 307 309 311 312 312 313 311 310 309 308 306 305 305 304 305 305 305 305 305 307 307 306 306 308 307 307 307 307 307 306 306 306 306 308 307 307 307 308 309 309 309 309 309 310
301 301 301 302 305 306 306 305 302 303 307 309 311 312 313 313 313 313 310 308 305 305 305 306 306 305 306 305 306 307 307 306 307 307 306 307 307 307 307 306 306 306 307 307 308 308 309 312 313 313 313 313 315 316
303 305 306 306 306 308 309 305 304 305 309 311 312 312 312 314 314 312 308 306 306 307 309 308 308 306 305 306 307 307 306 307 307 306 306 307 307 308 306 306 305 304 308 307 307 308 313 316 318 318 317 317 318 316
308 311 311 313 312 310 309 310 309 310 310 311 310 312 315 315 314 310 309 308 309 311 310 309 308 306 306 306 306 306 307 307 306 305 305 306 307 307 306 307 305 304 309 307 307 308 314 320 321 322 318 317 318 318
314 314 315 314 313 312 312 312 312 312 312 313 314 314 316 314 312 311 310 312 314 314 313 310 308 307 307 306 306 306 307 308 308 307 308 309 308 307 305 305 305 307 310 309 309 310 315 320 324 327 323 319 320 320
315 314 313 312 312 313 313 312 311 312 314 315 315 316 314 314 315 314 315 316 317 314 312 311 310 311 309 307 308 310 310 310 309 309 309 308 307 306 307 307 307 307 306 305 304 306 311 316 322 331 331 324 321 320
313 313 312 312 312 313 312 312 314 316 316 316 316 315 315 315 315 313 316 318 316 315 313 311 310 308 306 307 310 310 311 310 308 308 308 308 307 306 308 308 309 308 306 304 303 304 309 315 321 330 335 333 326 319
312 312 313 313 313 313 314 316 317 316 315 314 314 313 315 313 313 316 317 317 314 313 312 310 309 309 310 309 310 312 310 308 310 310 308 307 305 306 309 312 313 313 311 308 306 300 300 308 316 325 331 335 337 325
314 314 315 315 316 317 318 316 316 315 314 313 313 314 315 314 317 319 317 317 318 315 313 314 314 312 310 309 308 306 306 307 308 307 307 309 309 307 308 310 310 312 311 309 307 300 299 303 310 319 325 332 339 340
317 317 317 317 317 317 316 315 316 316 314 314 314 316 316 317 319 320 321 321 319 320 321 321 317 313 309 307 308 307 308 307 310 311 313 315 313 311 312 313 313 312 311 311 306 299 295 300 307 312 318 324 332 339
318 317 318 318 318 318 317 318 317 317 314 315 317 317 320 324 325 326 328 328 331 331 329 330 331 328 327 325 323 324 324 322 320 318 317 317 318 318 317 316 314 314 314 313 310 308 306 303 301 306 314 319 325 331
319 319 319 318 320 320 320 321 320 321 323 323 322 325 329 329 330 332 334 338 342 344 347 345 341 337 335 333 333 333 329 326 324 321 321 322 322 321 320 318 316 313 310 308 305 303 300 300 300 303 308 314 320 325
Height
5663 5666 5668 5668 5669 5670 5671 5671 5670 5670 5670 5670 5669 5669 5668 5667 5665 5663 5661 5658 5657 5654 5651 5647 5644 5640 5635 5631 5626 5622 5617 5612 5606 5601 5595 5590 5583 5578 5573 5568 5559 5552 5544 5541 5534 5529 5521 5518 5512 5508 5505 5501 5497 5494
5663 5663 5665 5666 5665 5666 5666 5666 5666 5666 5667 5667 5666 5665 5663 5661 5659 5657 5655 5651 5649 5645 5641 5637 5632 5628 5623 5618 5613 5608 5602 5595 5589 5583 5577 5570 5566 5560 5556 5550 5543 5533 5529 5522 5516 5516 5508 5500 5496 5492 5489 5486 5483 5481
5661 5661 5662 5662 5662 5662 5663 5663 5664 5664 5663 5662 5661 5659 5657 5655 5652 5650 5647 5643 5640 5636 5632 5627 5622 5617 5611 5606 5600 5595 5590 5583 5576 5570 5563 5557 5549 5543 5538 5533 5525 5516 5508 5502 5497 5503 5492 5486 5480 5477 5472 5470 5468 5466
5660 5660 5660 5660 5660 5660 5661 5662 5661 5660 5658 5656 5654 5652 5649 5647 5645 5641 5638 5633 5629 5624 5620 5616 5611 5606 5599 5593 5587 5581 5574 5567 5561 5553 5546 5539 5531 5524 5519 5514 5508 5497 5489 5484 5483 5480 5475 5472 5466 5461 5458 5455 5452 5450
5659 5659 5660 5659 5660 5659 5658 5658 5656 5654 5652 5649 5647 5644 5641 5638 5635 5631 5627 5622 5618 5614 5609 5604 5598 5591 5584 5578 5571 5565 5557 5550 5543 5536 5528 5520 5511 5502 5499 5494 5490 5476 5473 5468 5467 5461 5458 5457 5450 5445 5444 5440 5437 5435
5658 5659 5658 5658 5656 5655 5654 5652 5650 5648 5645 5643 5639 5635 5631 5627 5623 5619 5614 5611 5605 5599 5594 5588 5583 5576 5568 5560 5553 5545 5537 5530 5522 5514 5507 5499 5490 5483 5478 5477 5468 5458 5459 5453 5449 5445 5442 5437 5434 5429 5428 5425 5422 5421
5657 5656 5655 5653 5651 5650 5648 5646 5644 5641 5638 5634 5630 5625 5621 5615 5610 5605 5601 5596 5591 5585 5578 5570 5565 5557 5550 5543 5534 5526 5517 5510 5500 5493 5486 5476 5469 5463 5460 5457 5452 5445 5442 5437 5430 5428 5427 5421 5418 5415 5412 5409 5407 5406
5653 5652 5650 5649 5646 5643 5641 5638 5635 5631 5627 5623 5618 5614 5608 5604 5600 5595 5589 5583 5577 5570 5564 5555 5548 5541 5533 5525 5517 5507 5499 5489 5479 5473 5466 5457 5452 5447 5444 5441 5435 5428 5425 5420 5416 5412 5410 5408 5404 5401 5399 5396 5394 5393
5648 5646 5644 5641 5638 5635 5631 5627 5624 5619 5615 5611 5606 5601 5596 5590 5586 5580 5575 5569 5563 5557 5547 5540 5531 5521 5510 5501 5492 5484 5478 5468 5464 5457 5450 5442 5437 5431 5428 5423 5417 5412 5408 5406 5402 5398 5396 5393 5391 5388 5386 5384 5382 5381
5640 5638 5635 5632 5628 5624 5621 5616 5611 5607 5602 5597 5593 5587 5581 5575 5568 5564 5557 5550 5543 5537 5527 5520 5510 5501 5491 5479 5471 5463 5455 5450 5443 5441 5431 5426 5421 5416 5411 5408 5403 5398 5394 5391 5389 5387 5384 5382 5380 5377 5375 5372 5370 5368
5631 5627 5624 5620 5616 5611 5608 5603 5598 5593 5589 5583 5578 5573 5566 5559 5553 5545 5538 5532 5523 5515 5508 5501 5494 5483 5474 5465 5456 5446 5438 5431 5427 5425 5418 5412 5407 5402 5398 5394 5389 5385 5382 5380 5378 5376 5374 5372 5370 5366 5364 5361 5359 5357
5620 5616 5612 5608 5604 5599 5595 5590 5584 5579 5574 5569 5563 5556 5549 5542 5534 5528 5519 5512 5503 5497 5490 5482 5475 5467 5459 5449 5440 5434 5426 5419 5413 5408 5403 5399 5395 5390 5386 5383 5379 5376 5372 5370 5367 5364 5362 5360 5357 5355 5352 5350 5348 5345
5609 5604 5600 5596 5591 5586 5581 5576 5571 5565 5559 5553 5547 5540 5532 5524 5516 5509 5502 5496 5487 5480 5473 5466 5458 5452 5444 5436 5427 5420 5412 5407 5400 5395 5390 5386 5382 5378 5375 5371 5367 5365 5363 5359 5356 5351 5349 5346 5342 5338 5335 5334 5332 5330
5596 5591 5587 5582 5576 5572 5566 5560 5555 5549 5543 5537 5530 5523 5517 5507 5500 5493 5485 5478 5471 5463 5457 5452 5446 5440 5432 5424 5416 5406 5401 5395 5388 5383 5378 5374 5370 5366 5362 5359 5352 5348 5346 5343 5340 5336 5332 5328 5325 5321 5318 5315 5312 5311
5582 5576 5571 5566 5561 5556 5550 5544 5539 5533 5526 5520 5514 5505 5500 5493 5485 5478 5471 5464 5458 5451 5445 5440 5435 5429 5421 5413 5406 5397 5388 5381 5375 5370 5366 5361 5357 5352 5347 5342 5337 5333 5329 5324 5320 5316 5313 5309 5306 5303 5300 5295 5292 5289
5566 5562 5556 5550 5545 5540 5534 5529 5522 5516 5512 5506 5501 5492 5485 5479 5470 5464 5457 5451 5445 5439 5432 5425 5420 5414 5408 5400 5394 5386 5378 5371 5365 5359 5354 5348 5343 5338 5333 5327 5322 5317 5312 5307 5302 5297 5293 5289 5284 5281 5276 5272 5268 5264
5549 5544 5539 5534 5528 5523 5516 5511 5507 5502 5496 5490 5484 5477 5471 5465 5458 5452 5445 5439 5433 5428 5421 5413 5406 5399 5392 5385 5380 5372 5366 5360 5353 5347 5341 5335 5329 5323 5317 5312 5307 5302 5296 5290 5285 5281 5276 5271 5266 5262 5256 5251 5247 5242
5532 5527 5521 5516 5512 5507 5502 5497 5492 5487 5482 5477 5470 5463 5456 5451 5446 5440 5434 5427 5420 5414 5407 5400 5393 5388 5377 5372 5366 5359 5352 5346 5340 5334 5327 5321 5314 5308 5303 5297 5292 5287 5281 5275 5270 5265 5259 5254 5249 5243 5238 5232 5228 5223
5516 5511 5505 5500 5496 5491 5486 5483 5479 5472 5469 5462 5455 5449 5444 5440 5433 5427 5420 5413 5405 5398 5391 5386 5378 5371 5365 5358 5351 5344 5338 5331 5325 5319 5312 5305 5299 5293 5288 5283 5277 5272 5266 5260 5255 5249 5243 5237 5232 5226 5220 5215 5210 5204
5499 5494 5489 5485 5481 5476 5472 5469 5464 5457 5453 5448 5442 5436 5432 5427 5420 5413 5406 5398 5391 5383 5376 5369 5363 5355 5348 5342 5335 5329 5323 5316 5310 5303 5297 5291 5284 5279 5273 5267 5263 5257 5250 5245 5238 5234 5228 5221 5216 5211 5205 5200 5195 5190
5484 5479 5475 5472 5468 5464 5459 5455 5449 5443 5438 5434 5430 5424 5419 5413 5405 5398 5391 5383 5376 5367 5360 5353 5345 5339 5332 5326 5319 5313 5307 5300 5294 5288 5282 5276 5270 5264 5259 5254 5248 5242 5236 5231 5225 5219 5214 5208 5202 5197 5191 5185 5180 5176
5471 5468 5464 5459 5456 5451 5448 5442 5436 5430 5427 5422 5416 5409 5403 5398 5391 5383 5376 5368 5359 5351 5344 5336 5330 5323 5315 5309 5303 5297 5291 5284 5278 5273 5267 5260 5255 5250 5244 5239 5234 5228 5221 5217 5212 5207 5201 5196 5191 5185 5180 5174 5169 5165
5460 5457 5454 5449 5445 5439 5435 5429 5425 5419 5413 5407 5401 5394 5387 5380 5374 5367 5359 5351 5342 5334 5327 5320 5313 5305 5299 5293 5287 5281 5276 5268 5263 5258 5252 5247 5241 5237 5231 5226 5221 5216 5210 5205 5201 5196 5190 5185 5180 5175 5169 5164 5159 5154
5450 5446 5441 5437 5432 5427 5422 5417 5413 5406 5400 5392 5384 5377 5371 5364 5357 5349 5341 5333 5325 5317 5310 5303 5296 5289 5283 5277 5272 5266 5261 5254 5248 5242 5238 5233 5228 5224 5219 5213 5208 5203 5201 5195 5190 5185 5181 5176 5170 5165 5160 5155 5151 5146
5440 5436 5431 5426 5421 5416 5411 5405 5399 5392 5385 5377 5369 5362 5353 5345 5338 5330 5322 5313 5306 5300 5293 5287 5280 5275 5269 5263 5257 5251 5246 5239 5234 5227 5223 5220 5216 5211 5206 5201 5195 5191 5190 5185 5181 5176 5172 5167 5162 5157 5152 5147 5143 5138
5430 5426 5421 5415 5408 5403 5397 5390 5383 5375 5367 5359 5351 5342 5334 5326 5320 5311 5302 5295 5289 5282 5275 5269 5263 5258 5253 5248 5243 5236 5231 5225 5220 5214 5209 5206 5203 5200 5196 5192 5187 5180 5177 5173 5171 5168 5164 5160 5154 5149 5144 5139 5135 5131
5422 5416 5410 5403 5396 5389 5382 5376 5369 5361 5352 5343 5334 5326 5316 5308 5299 5292 5284 5279 5273 5266 5260 5254 5248 5243 5238 5232 5228 5223 5218 5213 5208 5203 5198 5193 5190 5187 5185 5182 5178 5173 5169 5165 5162 5159 5156 5153 5148 5143 5138 5132 5127 5123
5411 5404 5398 5391 5384 5377 5368 5361 5352 5344 5335 5325 5316 5307 5298 5291 5285 5276 5271 5265 5259 5253 5247 5240 5234 5229 5223 5219 5215 5210 5205 5201 5197 5193 5189 5183 5179 5175 5174 5171 5168 5164 5161 5157 5154 5151 5149 5146 5142 5137 5133 5127 5122 5117
5399 5391 5385 5378 5370 5362 5353 5345 5338 5329 5319 5309 5299 5291 5285 5277 5269 5264 5258 5252 5246 5240 5234 5227 5221 5216 5211 5207 5203 5198 5193 5189 5186 5184 5180 5177 5173 5167 5162 5160 5157 5155 5152 5148 5145 5144 5143 5140 5136 5132 5128 5124 5119 5113
5386 5378 5370 5363 5354 5345 5338 5329 5320 5311 5301 5291 5283 5279 5272 5264 5258 5252 5246 5239 5232 5225 5219 5214 5209 5204 5200 5196 5193 5188 5183 5179 5176 5173 5171 5169 5164 5160 5156 5153 5149 5146 5143 5140 5137 5134 5133 5132 5129 5125 5122 5118 5114 5108
5371 5362 5354 5347 5339 5331 5322 5313 5304 5296 5286 5278 5270 5265 5259 5254 5249 5242 5235 5228 5220 5213 5207 5202 5197 5193 5189 5186 5183 5181 5178 5172 5168 5164 5161 5159 5155 5152 5148 5145 5141 5138 5134 5132 5129 5127 5125 5123 5121 5118 5115 5111 5107 5103
5356 5347 5337 5329 5322 5314 5304 5298 5290 5283 5274 5267 5261 5255 5249 5244 5239 5233 5227 5221 5214 5207 5200 5195 5190 5186 5182 5178 5175 5171 5168 5165 5161 5158 5155 5151 5147 5144 5141 5137 5133 5130 5127 5124 5121 5118 5116 5115 5114 5111 5108 5105 5101 5097
5339 5330 5320 5311 5304 5296 5288 5281 5274 5269 5264 5257 5251 5246 5241 5236 5230 5225 5220 5214 5209 5203 5197 5191 5186 5181 5177 5173 5169 5166 5163 5159 5155 5151 5148 5144 5140 5137 5134 5131 5128 5124 5121 5117 5114 5111 5109 5107 5105 5104 5102 5099 5095 5091